Year,Month,Day,Hour,Minute,Value (Times are PST for temperature in C)
2015,06,15,00,00,14.10
2015,06,15,00,01,14.10
2015,06,15,00,02,14.10
2015,06,15,00,03,14.00
2015,06,15,00,04,14.00
2015,06,15,00,05,14.00
2015,06,15,00,06,14.00
2015,06,15,00,07,13.90
2015,06,15,00,08,13.90
2015,06,15,00,09,13.90
2015,06,15,00,10,13.90
2015,06,15,00,11,13.90
2015,06,15,00,12,13.90
2015,06,15,00,13,13.90
2015,06,15,00,14,13.90
2015,06,15,00,15,13.80
2015,06,15,00,16,13.80
2015,06,15,00,17,13.80
2015,06,15,00,18,13.80
2015,06,15,00,19,13.80
2015,06,15,00,20,13.80
2015,06,15,00,21,13.80
2015,06,15,00,22,13.70
2015,06,15,00,23,13.70
2015,06,15,00,24,13.70
2015,06,15,00,25,13.60
2015,06,15,00,26,13.60
2015,06,15,00,27,13.60
2015,06,15,00,28,13.60
2015,06,15,00,29,13.50
2015,06,15,00,30,13.50
2015,06,15,00,31,13.40
2015,06,15,00,32,13.40
2015,06,15,00,33,13.40
2015,06,15,00,34,13.40
2015,06,15,00,35,13.30
2015,06,15,00,36,13.30
2015,06,15,00,37,13.30
2015,06,15,00,38,13.30
2015,06,15,00,39,13.30
2015,06,15,00,40,13.30
2015,06,15,00,41,13.30
2015,06,15,00,42,13.30
2015,06,15,00,43,13.20
2015,06,15,00,44,13.20
2015,06,15,00,45,13.20
2015,06,15,00,46,13.20
2015,06,15,00,47,13.20
2015,06,15,00,48,13.20
2015,06,15,00,49,13.20
2015,06,15,00,50,13.10
2015,06,15,00,51,13.10
2015,06,15,00,52,13.10
2015,06,15,00,53,13.10
2015,06,15,00,54,13.00
2015,06,15,00,55,13.00
2015,06,15,00,56,13.00
2015,06,15,00,57,12.90
2015,06,15,00,58,12.90
2015,06,15,00,59,12.90
2015,06,15,01,00,12.90
2015,06,15,01,01,12.90
2015,06,15,01,02,12.80
2015,06,15,01,03,12.80
2015,06,15,01,04,12.80
2015,06,15,01,05,12.80
2015,06,15,01,06,12.80
2015,06,15,01,07,12.70
2015,06,15,01,08,12.70
2015,06,15,01,09,12.70
2015,06,15,01,10,12.60
2015,06,15,01,11,12.60
2015,06,15,01,12,12.60
2015,06,15,01,13,12.60
2015,06,15,01,14,12.60
2015,06,15,01,15,12.60
2015,06,15,01,16,12.60
2015,06,15,01,17,12.60
2015,06,15,01,18,12.60
2015,06,15,01,19,12.60
2015,06,15,01,20,12.50
2015,06,15,01,21,12.50
2015,06,15,01,22,12.50
2015,06,15,01,23,12.50
2015,06,15,01,24,12.40
2015,06,15,01,25,12.40
2015,06,15,01,26,12.40
2015,06,15,01,27,12.40
2015,06,15,01,28,12.40
2015,06,15,01,29,12.40
2015,06,15,01,30,12.40
2015,06,15,01,31,12.30
2015,06,15,01,32,12.30
2015,06,15,01,33,12.30
2015,06,15,01,34,12.30
2015,06,15,01,35,12.30
2015,06,15,01,36,12.30
2015,06,15,01,37,12.30
2015,06,15,01,38,12.30
2015,06,15,01,39,12.30
2015,06,15,01,40,12.30
2015,06,15,01,41,12.30
2015,06,15,01,42,12.20
2015,06,15,01,43,12.20
2015,06,15,01,44,12.20
2015,06,15,01,45,12.20
2015,06,15,01,46,12.20
2015,06,15,01,47,12.20
2015,06,15,01,48,12.20
2015,06,15,01,49,12.20
2015,06,15,01,50,12.20
2015,06,15,01,51,12.20
2015,06,15,01,52,12.20
2015,06,15,01,53,12.20
2015,06,15,01,54,12.20
2015,06,15,01,55,12.20
2015,06,15,01,56,12.20
2015,06,15,01,57,12.20
2015,06,15,01,58,12.10
2015,06,15,01,59,12.10
2015,06,15,02,00,12.10
2015,06,15,02,01,12.10
2015,06,15,02,02,12.00
2015,06,15,02,03,12.00
2015,06,15,02,04,12.00
2015,06,15,02,05,11.90
2015,06,15,02,06,11.90
2015,06,15,02,07,11.90
2015,06,15,02,08,11.90
2015,06,15,02,09,11.90
2015,06,15,02,10,11.80
2015,06,15,02,11,11.80
2015,06,15,02,12,11.80
2015,06,15,02,13,11.80
2015,06,15,02,14,11.80
2015,06,15,02,15,11.80
2015,06,15,02,16,11.80
2015,06,15,02,17,11.80
2015,06,15,02,18,11.80
2015,06,15,02,19,11.80
2015,06,15,02,20,11.80
2015,06,15,02,21,11.80
2015,06,15,02,22,11.80
2015,06,15,02,23,11.80
2015,06,15,02,24,11.80
2015,06,15,02,25,11.80
2015,06,15,02,26,11.80
2015,06,15,02,27,11.80
2015,06,15,02,28,11.80
2015,06,15,02,29,11.80
2015,06,15,02,30,11.80
2015,06,15,02,31,11.80
2015,06,15,02,32,11.80
2015,06,15,02,33,11.80
2015,06,15,02,34,11.80
2015,06,15,02,35,11.80
2015,06,15,02,36,11.80
2015,06,15,02,37,11.80
2015,06,15,02,38,11.80
2015,06,15,02,39,11.90
2015,06,15,02,40,11.90
2015,06,15,02,41,11.90
2015,06,15,02,42,11.90
2015,06,15,02,43,11.90
2015,06,15,02,44,11.90
2015,06,15,02,45,11.90
2015,06,15,02,46,11.80
2015,06,15,02,47,11.80
2015,06,15,02,48,11.80
2015,06,15,02,49,11.80
2015,06,15,02,50,11.80
2015,06,15,02,51,11.80
2015,06,15,02,52,11.80
2015,06,15,02,53,11.80
2015,06,15,02,54,11.80
2015,06,15,02,55,11.80
2015,06,15,02,56,11.80
2015,06,15,02,57,11.80
2015,06,15,02,58,11.80
2015,06,15,02,59,11.80
2015,06,15,03,00,11.80
2015,06,15,03,01,11.80
2015,06,15,03,02,11.80
2015,06,15,03,03,11.80
2015,06,15,03,04,11.70
2015,06,15,03,05,11.70
2015,06,15,03,06,11.70
2015,06,15,03,07,11.70
2015,06,15,03,08,11.70
2015,06,15,03,09,11.70
2015,06,15,03,10,11.60
2015,06,15,03,11,11.60
2015,06,15,03,12,11.60
2015,06,15,03,13,11.60
2015,06,15,03,14,11.60
2015,06,15,03,15,11.60
2015,06,15,03,16,11.60
2015,06,15,03,17,11.60
2015,06,15,03,18,11.70
2015,06,15,03,19,11.70
2015,06,15,03,20,11.80
2015,06,15,03,21,11.80
2015,06,15,03,22,11.90
2015,06,15,03,23,11.90
2015,06,15,03,24,12.00
2015,06,15,03,25,12.00
2015,06,15,03,26,12.00
2015,06,15,03,27,12.10
2015,06,15,03,28,12.00
2015,06,15,03,29,12.00
2015,06,15,03,30,12.00
2015,06,15,03,31,12.00
2015,06,15,03,32,12.00
2015,06,15,03,33,11.90
2015,06,15,03,34,11.90
2015,06,15,03,35,11.80
2015,06,15,03,36,11.80
2015,06,15,03,37,11.70
2015,06,15,03,38,11.70
2015,06,15,03,39,11.60
2015,06,15,03,40,11.60
2015,06,15,03,41,11.60
2015,06,15,03,42,11.50
2015,06,15,03,43,11.50
2015,06,15,03,44,11.40
2015,06,15,03,45,11.40
2015,06,15,03,46,11.40
2015,06,15,03,47,11.40
2015,06,15,03,48,11.40
2015,06,15,03,49,11.50
2015,06,15,03,50,11.50
2015,06,15,03,51,11.50
2015,06,15,03,52,11.60
2015,06,15,03,53,11.70
2015,06,15,03,54,11.80
2015,06,15,03,55,11.80
2015,06,15,03,56,11.90
2015,06,15,03,57,12.00
2015,06,15,03,58,12.10
2015,06,15,03,59,12.20
2015,06,15,04,00,12.20
2015,06,15,04,01,12.30
2015,06,15,04,02,12.30
2015,06,15,04,03,12.30
2015,06,15,04,04,12.30
2015,06,15,04,05,12.30
2015,06,15,04,06,12.30
2015,06,15,04,07,12.30
2015,06,15,04,08,12.30
2015,06,15,04,09,12.20
2015,06,15,04,10,12.20
2015,06,15,04,11,12.20
2015,06,15,04,12,12.20
2015,06,15,04,13,12.10
2015,06,15,04,14,12.10
2015,06,15,04,15,12.10
2015,06,15,04,16,12.00
2015,06,15,04,17,12.00
2015,06,15,04,18,11.90
2015,06,15,04,19,11.90
2015,06,15,04,20,11.90
2015,06,15,04,21,11.80
2015,06,15,04,22,11.80
2015,06,15,04,23,11.80
2015,06,15,04,24,11.70
2015,06,15,04,25,11.70
2015,06,15,04,26,11.70
2015,06,15,04,27,11.60
2015,06,15,04,28,11.60
2015,06,15,04,29,11.60
2015,06,15,04,30,11.60
2015,06,15,04,31,11.60
2015,06,15,04,32,11.60
2015,06,15,04,33,11.60
2015,06,15,04,34,11.60
2015,06,15,04,35,11.60
2015,06,15,04,36,11.60
2015,06,15,04,37,11.60
2015,06,15,04,38,11.60
2015,06,15,04,39,11.60
2015,06,15,04,40,11.50
2015,06,15,04,41,11.50
2015,06,15,04,42,11.40
2015,06,15,04,43,11.40
2015,06,15,04,44,11.40
2015,06,15,04,45,11.30
2015,06,15,04,46,11.30
2015,06,15,04,47,11.30
2015,06,15,04,48,11.20
2015,06,15,04,49,11.20
2015,06,15,04,50,11.20
2015,06,15,04,51,11.10
2015,06,15,04,52,11.10
2015,06,15,04,53,11.10
2015,06,15,04,54,11.00
2015,06,15,04,55,11.00
2015,06,15,04,56,11.00
2015,06,15,04,57,10.90
2015,06,15,04,58,10.90
2015,06,15,04,59,10.80
2015,06,15,05,00,10.80
2015,06,15,05,01,10.80
2015,06,15,05,02,10.70
2015,06,15,05,03,10.70
2015,06,15,05,04,10.70
2015,06,15,05,05,10.70
2015,06,15,05,06,10.60
2015,06,15,05,07,10.60
2015,06,15,05,08,10.60
2015,06,15,05,09,10.60
2015,06,15,05,10,10.60
2015,06,15,05,11,10.60
2015,06,15,05,12,10.70
2015,06,15,05,13,10.70
2015,06,15,05,14,10.80
2015,06,15,05,15,10.80
2015,06,15,05,16,10.90
2015,06,15,05,17,10.90
2015,06,15,05,18,11.00
2015,06,15,05,19,11.00
2015,06,15,05,20,11.10
2015,06,15,05,21,11.10
2015,06,15,05,22,11.10
2015,06,15,05,23,11.10
2015,06,15,05,24,11.10
2015,06,15,05,25,11.10
2015,06,15,05,26,11.20
2015,06,15,05,27,11.30
2015,06,15,05,28,11.30
2015,06,15,05,29,11.40
2015,06,15,05,30,11.50
2015,06,15,05,31,11.50
2015,06,15,05,32,11.50
2015,06,15,05,33,11.50
2015,06,15,05,34,11.50
2015,06,15,05,35,11.40
2015,06,15,05,36,11.40
2015,06,15,05,37,11.40
2015,06,15,05,38,11.40
2015,06,15,05,39,11.30
2015,06,15,05,40,11.30
2015,06,15,05,41,11.30
2015,06,15,05,42,11.30
2015,06,15,05,43,11.30
2015,06,15,05,44,11.30
2015,06,15,05,45,11.30
2015,06,15,05,46,11.20
2015,06,15,05,47,11.20
2015,06,15,05,48,11.20
2015,06,15,05,49,11.10
2015,06,15,05,50,11.10
2015,06,15,05,51,11.10
2015,06,15,05,52,11.10
2015,06,15,05,53,11.00
2015,06,15,05,54,11.00
2015,06,15,05,55,11.00
2015,06,15,05,56,11.00
2015,06,15,05,57,11.00
2015,06,15,05,58,10.90
2015,06,15,05,59,10.90
2015,06,15,06,00,10.90
2015,06,15,06,01,10.90
2015,06,15,06,02,10.90
2015,06,15,06,03,10.90
2015,06,15,06,04,10.90
2015,06,15,06,05,10.90
2015,06,15,06,06,10.90
2015,06,15,06,07,10.90
2015,06,15,06,08,11.00
2015,06,15,06,09,11.10
2015,06,15,06,10,11.20
2015,06,15,06,11,11.30
2015,06,15,06,12,11.30
2015,06,15,06,13,11.50
2015,06,15,06,14,11.50
2015,06,15,06,15,11.60
2015,06,15,06,16,11.70
2015,06,15,06,17,11.80
2015,06,15,06,18,11.80
2015,06,15,06,19,11.90
2015,06,15,06,20,12.00
2015,06,15,06,21,12.00
2015,06,15,06,22,12.10
2015,06,15,06,23,12.20
2015,06,15,06,24,12.20
2015,06,15,06,25,12.30
2015,06,15,06,26,12.40
2015,06,15,06,27,12.40
2015,06,15,06,28,12.50
2015,06,15,06,29,12.50
2015,06,15,06,30,12.60
2015,06,15,06,31,12.60
2015,06,15,06,32,12.70
2015,06,15,06,33,12.70
2015,06,15,06,34,12.80
2015,06,15,06,35,12.80
2015,06,15,06,36,12.90
2015,06,15,06,37,12.90
2015,06,15,06,38,12.90
2015,06,15,06,39,13.00
2015,06,15,06,40,13.00
2015,06,15,06,41,13.10
2015,06,15,06,42,13.10
2015,06,15,06,43,13.10
2015,06,15,06,44,13.20
2015,06,15,06,45,13.20
2015,06,15,06,46,13.20
2015,06,15,06,47,13.20
2015,06,15,06,48,13.30
2015,06,15,06,49,13.30
2015,06,15,06,50,13.40
2015,06,15,06,51,13.40
2015,06,15,06,52,13.40
2015,06,15,06,53,13.50
2015,06,15,06,54,13.50
2015,06,15,06,55,13.50
2015,06,15,06,56,13.60
2015,06,15,06,57,13.60
2015,06,15,06,58,13.70
2015,06,15,06,59,13.70
2015,06,15,07,00,13.70
2015,06,15,07,01,13.70
2015,06,15,07,02,13.80
2015,06,15,07,03,13.80
2015,06,15,07,04,13.80
2015,06,15,07,05,13.80
2015,06,15,07,06,13.90
2015,06,15,07,07,13.90
2015,06,15,07,08,13.90
2015,06,15,07,09,14.00
2015,06,15,07,10,14.00
2015,06,15,07,11,14.00
2015,06,15,07,12,14.10
2015,06,15,07,13,14.10
2015,06,15,07,14,14.10
2015,06,15,07,15,14.10
2015,06,15,07,16,14.10
2015,06,15,07,17,14.20
2015,06,15,07,18,14.20
2015,06,15,07,19,14.20
2015,06,15,07,20,14.30
2015,06,15,07,21,14.30
2015,06,15,07,22,14.30
2015,06,15,07,23,14.30
2015,06,15,07,24,14.30
2015,06,15,07,25,14.30
2015,06,15,07,26,14.40
2015,06,15,07,27,14.40
2015,06,15,07,28,14.40
2015,06,15,07,29,14.40
2015,06,15,07,30,14.50
2015,06,15,07,31,14.50
2015,06,15,07,32,14.50
2015,06,15,07,33,14.50
2015,06,15,07,34,14.50
2015,06,15,07,35,14.60
2015,06,15,07,36,14.60
2015,06,15,07,37,14.60
2015,06,15,07,38,14.60
2015,06,15,07,39,14.70
2015,06,15,07,40,14.70
2015,06,15,07,41,14.70
2015,06,15,07,42,14.80
2015,06,15,07,43,14.80
2015,06,15,07,44,14.80
2015,06,15,07,45,14.80
2015,06,15,07,46,14.80
2015,06,15,07,47,14.90
2015,06,15,07,48,14.90
2015,06,15,07,49,14.90
2015,06,15,07,50,14.90
2015,06,15,07,51,14.90
2015,06,15,07,52,14.90
2015,06,15,07,53,15.00
2015,06,15,07,54,15.00
2015,06,15,07,55,15.10
2015,06,15,07,56,15.10
2015,06,15,07,57,15.20
2015,06,15,07,58,15.20
2015,06,15,07,59,15.20
2015,06,15,08,00,15.20
2015,06,15,08,01,15.30
2015,06,15,08,02,15.30
2015,06,15,08,03,15.30
2015,06,15,08,04,15.40
2015,06,15,08,05,15.40
2015,06,15,08,06,15.40
2015,06,15,08,07,15.40
2015,06,15,08,08,15.40
2015,06,15,08,09,15.50
2015,06,15,08,10,15.50
2015,06,15,08,11,15.60
2015,06,15,08,12,15.60
2015,06,15,08,13,15.60
2015,06,15,08,14,15.70
2015,06,15,08,15,15.70
2015,06,15,08,16,15.80
2015,06,15,08,17,15.80
2015,06,15,08,18,15.90
2015,06,15,08,19,15.90
2015,06,15,08,20,16.00
2015,06,15,08,21,16.00
2015,06,15,08,22,16.10
2015,06,15,08,23,16.10
2015,06,15,08,24,16.20
2015,06,15,08,25,16.20
2015,06,15,08,26,16.30
2015,06,15,08,27,16.40
2015,06,15,08,28,16.40
2015,06,15,08,29,16.50
2015,06,15,08,30,16.60
2015,06,15,08,31,16.60
2015,06,15,08,32,16.60
2015,06,15,08,33,16.60
2015,06,15,08,34,16.60
2015,06,15,08,35,16.60
2015,06,15,08,36,16.70
2015,06,15,08,37,16.70
2015,06,15,08,38,16.70
2015,06,15,08,39,16.70
2015,06,15,08,40,16.70
2015,06,15,08,41,16.60
2015,06,15,08,42,16.60
2015,06,15,08,43,16.70
2015,06,15,08,44,16.60
2015,06,15,08,45,16.60
2015,06,15,08,46,16.60
2015,06,15,08,47,16.60
2015,06,15,08,48,16.70
2015,06,15,08,49,16.70
2015,06,15,08,50,16.60
2015,06,15,08,51,16.60
2015,06,15,08,52,16.60
2015,06,15,08,53,16.50
2015,06,15,08,54,16.50
2015,06,15,08,55,16.50
2015,06,15,08,56,16.40
2015,06,15,08,57,16.40
2015,06,15,08,58,16.40
2015,06,15,08,59,16.40
2015,06,15,09,00,16.40
2015,06,15,09,01,16.40
2015,06,15,09,02,16.40
2015,06,15,09,03,16.40
2015,06,15,09,04,16.40
2015,06,15,09,05,16.40
2015,06,15,09,06,16.40
2015,06,15,09,07,16.40
2015,06,15,09,08,16.40
2015,06,15,09,09,16.30
2015,06,15,09,10,16.30
2015,06,15,09,11,16.40
2015,06,15,09,12,16.40
2015,06,15,09,13,16.40
2015,06,15,09,14,16.40
2015,06,15,09,15,16.40
2015,06,15,09,16,16.50
2015,06,15,09,17,16.60
2015,06,15,09,18,16.60
2015,06,15,09,19,16.70
2015,06,15,09,20,16.70
2015,06,15,09,21,16.80
2015,06,15,09,22,16.90
2015,06,15,09,23,17.00
2015,06,15,09,24,17.00
2015,06,15,09,25,17.00
2015,06,15,09,26,17.10
2015,06,15,09,27,17.10
2015,06,15,09,28,17.10
2015,06,15,09,29,17.10
2015,06,15,09,30,17.10
2015,06,15,09,31,17.10
2015,06,15,09,32,17.00
2015,06,15,09,33,17.10
2015,06,15,09,34,17.10
2015,06,15,09,35,17.10
2015,06,15,09,36,17.10
2015,06,15,09,37,17.20
2015,06,15,09,38,17.20
2015,06,15,09,39,17.20
2015,06,15,09,40,17.30
2015,06,15,09,41,17.30
2015,06,15,09,42,17.40
2015,06,15,09,43,17.40
2015,06,15,09,44,17.40
2015,06,15,09,45,17.50
2015,06,15,09,46,17.50
2015,06,15,09,47,17.60
2015,06,15,09,48,17.70
2015,06,15,09,49,17.70
2015,06,15,09,50,17.80
2015,06,15,09,51,17.80
2015,06,15,09,52,17.80
2015,06,15,09,53,17.80
2015,06,15,09,54,17.90
2015,06,15,09,55,17.90
2015,06,15,09,56,18.00
2015,06,15,09,57,18.00
2015,06,15,09,58,18.10
2015,06,15,09,59,18.10
2015,06,15,10,00,18.10
2015,06,15,10,01,18.20
2015,06,15,10,02,18.30
2015,06,15,10,03,18.40
2015,06,15,10,04,18.40
2015,06,15,10,05,18.40
2015,06,15,10,06,18.40
2015,06,15,10,07,18.40
2015,06,15,10,08,18.40
2015,06,15,10,09,18.40
2015,06,15,10,10,18.40
2015,06,15,10,11,18.50
2015,06,15,10,12,18.40
2015,06,15,10,13,18.40
2015,06,15,10,14,18.30
2015,06,15,10,15,18.30
2015,06,15,10,16,18.40
2015,06,15,10,17,18.40
2015,06,15,10,18,18.40
2015,06,15,10,19,18.40
2015,06,15,10,20,18.50
2015,06,15,10,21,18.60
2015,06,15,10,22,18.60
2015,06,15,10,23,18.70
2015,06,15,10,24,18.70
2015,06,15,10,25,18.60
2015,06,15,10,26,18.60
2015,06,15,10,27,18.70
2015,06,15,10,28,18.70
2015,06,15,10,29,18.80
2015,06,15,10,30,18.80
2015,06,15,10,31,18.80
2015,06,15,10,32,18.90
2015,06,15,10,33,18.90
2015,06,15,10,34,19.00
2015,06,15,10,35,19.10
2015,06,15,10,36,19.20
2015,06,15,10,37,19.20
2015,06,15,10,38,19.30
2015,06,15,10,39,19.30
2015,06,15,10,40,19.30
2015,06,15,10,41,19.40
2015,06,15,10,42,19.40
2015,06,15,10,43,19.50
2015,06,15,10,44,19.60
2015,06,15,10,45,19.70
2015,06,15,10,46,19.80
2015,06,15,10,47,19.90
2015,06,15,10,48,19.90
2015,06,15,10,49,20.00
2015,06,15,10,50,20.10
2015,06,15,10,51,20.20
2015,06,15,10,52,20.20
2015,06,15,10,53,20.20
2015,06,15,10,54,20.30
2015,06,15,10,55,20.40
2015,06,15,10,56,20.40
2015,06,15,10,57,20.50
2015,06,15,10,58,20.60
2015,06,15,10,59,20.70
2015,06,15,11,00,20.70
2015,06,15,11,01,20.70
2015,06,15,11,02,20.70
2015,06,15,11,03,20.70
2015,06,15,11,04,20.70
2015,06,15,11,05,20.70
2015,06,15,11,06,20.70
2015,06,15,11,07,20.60
2015,06,15,11,08,20.60
2015,06,15,11,09,20.60
2015,06,15,11,10,20.60
2015,06,15,11,11,20.50
2015,06,15,11,12,20.50
2015,06,15,11,13,20.60
2015,06,15,11,14,20.60
2015,06,15,11,15,20.70
2015,06,15,11,16,20.80
2015,06,15,11,17,20.80
2015,06,15,11,18,20.80
2015,06,15,11,19,20.80
2015,06,15,11,20,20.80
2015,06,15,11,21,20.90
2015,06,15,11,22,21.00
2015,06,15,11,23,21.00
2015,06,15,11,24,21.10
2015,06,15,11,25,21.10
2015,06,15,11,26,21.10
2015,06,15,11,27,21.20
2015,06,15,11,28,21.20
2015,06,15,11,29,21.20
2015,06,15,11,30,21.30
2015,06,15,11,31,21.30
2015,06,15,11,32,21.30
2015,06,15,11,33,21.40
2015,06,15,11,34,21.40
2015,06,15,11,35,21.50
2015,06,15,11,36,21.60
2015,06,15,11,37,21.60
2015,06,15,11,38,21.60
2015,06,15,11,39,21.60
2015,06,15,11,40,21.60
2015,06,15,11,41,21.60
2015,06,15,11,42,21.60
2015,06,15,11,43,21.60
2015,06,15,11,44,21.60
2015,06,15,11,45,21.60
2015,06,15,11,46,21.50
2015,06,15,11,47,21.40
2015,06,15,11,48,21.30
2015,06,15,11,49,21.20
2015,06,15,11,50,21.20
2015,06,15,11,51,21.20
2015,06,15,11,52,21.20
2015,06,15,11,53,21.20
2015,06,15,11,54,21.20
2015,06,15,11,55,21.30
2015,06,15,11,56,21.30
2015,06,15,11,57,21.30
2015,06,15,11,58,21.30
2015,06,15,11,59,21.30
2015,06,15,12,00,21.40
2015,06,15,12,01,21.40
2015,06,15,12,02,21.40
2015,06,15,12,03,21.40
2015,06,15,12,04,21.30
2015,06,15,12,05,21.40
2015,06,15,12,06,21.40
2015,06,15,12,07,21.50
2015,06,15,12,08,21.60
2015,06,15,12,09,21.60
2015,06,15,12,10,21.60
2015,06,15,12,11,21.60
2015,06,15,12,12,21.50
2015,06,15,12,13,21.50
2015,06,15,12,14,21.60
2015,06,15,12,15,21.60
2015,06,15,12,16,21.60
2015,06,15,12,17,21.60
2015,06,15,12,18,21.70
2015,06,15,12,19,21.70
2015,06,15,12,20,21.70
2015,06,15,12,21,21.80
2015,06,15,12,22,21.90
2015,06,15,12,23,21.90
2015,06,15,12,24,21.90
2015,06,15,12,25,22.00
2015,06,15,12,26,22.10
2015,06,15,12,27,22.20
2015,06,15,12,28,22.30
2015,06,15,12,29,22.40
2015,06,15,12,30,22.60
2015,06,15,12,31,22.70
2015,06,15,12,32,22.90
2015,06,15,12,33,23.10
2015,06,15,12,34,23.20
2015,06,15,12,35,23.30
2015,06,15,12,36,23.30
2015,06,15,12,37,23.30
2015,06,15,12,38,23.30
2015,06,15,12,39,23.40
2015,06,15,12,40,23.40
2015,06,15,12,41,23.40
2015,06,15,12,42,23.40
2015,06,15,12,43,23.40
2015,06,15,12,44,23.40
2015,06,15,12,45,23.40
2015,06,15,12,46,23.40
2015,06,15,12,47,23.50
2015,06,15,12,48,23.60
2015,06,15,12,49,23.60
2015,06,15,12,50,23.70
2015,06,15,12,51,23.70
2015,06,15,12,52,23.80
2015,06,15,12,53,23.80
2015,06,15,12,54,23.80
2015,06,15,12,55,23.90
2015,06,15,12,56,24.00
2015,06,15,12,57,24.10
2015,06,15,12,58,24.20
2015,06,15,12,59,24.40
2015,06,15,13,00,24.50
2015,06,15,13,01,24.60
2015,06,15,13,02,24.60
2015,06,15,13,03,24.70
2015,06,15,13,04,24.70
2015,06,15,13,05,24.80
2015,06,15,13,06,24.80
2015,06,15,13,07,24.80
2015,06,15,13,08,24.80
2015,06,15,13,09,24.80
2015,06,15,13,10,24.80
2015,06,15,13,11,24.70
2015,06,15,13,12,24.70
2015,06,15,13,13,24.70
2015,06,15,13,14,24.80
2015,06,15,13,15,24.80
2015,06,15,13,16,24.80
2015,06,15,13,17,24.80
2015,06,15,13,18,24.90
2015,06,15,13,19,24.90
2015,06,15,13,20,24.90
2015,06,15,13,21,24.90
2015,06,15,13,22,24.90
2015,06,15,13,23,24.90
2015,06,15,13,24,24.90
2015,06,15,13,25,24.90
2015,06,15,13,26,25.00
2015,06,15,13,27,25.00
2015,06,15,13,28,25.10
2015,06,15,13,29,25.20
2015,06,15,13,30,25.20
2015,06,15,13,31,25.20
2015,06,15,13,32,25.10
2015,06,15,13,33,25.00
2015,06,15,13,34,25.00
2015,06,15,13,35,24.90
2015,06,15,13,36,24.90
2015,06,15,13,37,24.90
2015,06,15,13,38,25.00
2015,06,15,13,39,25.00
2015,06,15,13,40,25.10
2015,06,15,13,41,25.10
2015,06,15,13,42,25.20
2015,06,15,13,43,25.20
2015,06,15,13,44,25.20
2015,06,15,13,45,25.30
2015,06,15,13,46,25.40
2015,06,15,13,47,25.50
2015,06,15,13,48,25.50
2015,06,15,13,49,25.50
2015,06,15,13,50,25.40
2015,06,15,13,51,25.40
2015,06,15,13,52,25.30
2015,06,15,13,53,25.40
2015,06,15,13,54,25.40
2015,06,15,13,55,25.30
2015,06,15,13,56,25.40
2015,06,15,13,57,25.40
2015,06,15,13,58,25.40
2015,06,15,13,59,25.50
2015,06,15,14,00,25.50
2015,06,15,14,01,25.50
2015,06,15,14,02,25.60
2015,06,15,14,03,25.60
2015,06,15,14,04,25.60
2015,06,15,14,05,25.60
2015,06,15,14,06,25.70
2015,06,15,14,07,25.70
2015,06,15,14,08,25.80
2015,06,15,14,09,25.80
2015,06,15,14,10,25.90
2015,06,15,14,11,26.00
2015,06,15,14,12,26.00
2015,06,15,14,13,26.00
2015,06,15,14,14,26.00
2015,06,15,14,15,26.00
2015,06,15,14,16,26.00
2015,06,15,14,17,25.90
2015,06,15,14,18,25.90
2015,06,15,14,19,25.90
2015,06,15,14,20,25.90
2015,06,15,14,21,25.90
2015,06,15,14,22,25.90
2015,06,15,14,23,25.80
2015,06,15,14,24,25.90
2015,06,15,14,25,25.90
2015,06,15,14,26,25.90
2015,06,15,14,27,26.00
2015,06,15,14,28,26.10
2015,06,15,14,29,26.10
2015,06,15,14,30,26.10
2015,06,15,14,31,26.00
2015,06,15,14,32,26.00
2015,06,15,14,33,25.90
2015,06,15,14,34,25.90
2015,06,15,14,35,25.90
2015,06,15,14,36,25.90
2015,06,15,14,37,25.80
2015,06,15,14,38,25.80
2015,06,15,14,39,25.80
2015,06,15,14,40,25.80
2015,06,15,14,41,25.80
2015,06,15,14,42,25.80
2015,06,15,14,43,25.80
2015,06,15,14,44,25.90
2015,06,15,14,45,25.90
2015,06,15,14,46,25.90
2015,06,15,14,47,25.90
2015,06,15,14,48,26.00
2015,06,15,14,49,26.10
2015,06,15,14,50,26.10
2015,06,15,14,51,26.10
2015,06,15,14,52,26.10
2015,06,15,14,53,26.10
2015,06,15,14,54,26.00
2015,06,15,14,55,26.00
2015,06,15,14,56,26.00
2015,06,15,14,57,26.00
2015,06,15,14,58,26.00
2015,06,15,14,59,25.90
2015,06,15,15,00,25.90
2015,06,15,15,01,26.00
2015,06,15,15,02,26.10
2015,06,15,15,03,26.20
2015,06,15,15,04,26.20
2015,06,15,15,05,26.30
2015,06,15,15,06,26.30
2015,06,15,15,07,26.30
2015,06,15,15,08,26.30
2015,06,15,15,09,26.30
2015,06,15,15,10,26.30
2015,06,15,15,11,26.30
2015,06,15,15,12,26.30
2015,06,15,15,13,26.30
2015,06,15,15,14,26.30
2015,06,15,15,15,26.30
2015,06,15,15,16,26.30
2015,06,15,15,17,26.30
2015,06,15,15,18,26.40
2015,06,15,15,19,26.40
2015,06,15,15,20,26.50
2015,06,15,15,21,26.50
2015,06,15,15,22,26.60
2015,06,15,15,23,26.60
2015,06,15,15,24,26.50
2015,06,15,15,25,26.50
2015,06,15,15,26,26.50
2015,06,15,15,27,26.50
2015,06,15,15,28,26.50
2015,06,15,15,29,26.50
2015,06,15,15,30,26.60
2015,06,15,15,31,26.60
2015,06,15,15,32,26.60
2015,06,15,15,33,26.60
2015,06,15,15,34,26.70
2015,06,15,15,35,26.70
2015,06,15,15,36,26.80
2015,06,15,15,37,26.90
2015,06,15,15,38,27.00
2015,06,15,15,39,27.00
2015,06,15,15,40,27.00
2015,06,15,15,41,27.00
2015,06,15,15,42,27.00
2015,06,15,15,43,27.00
2015,06,15,15,44,27.00
2015,06,15,15,45,27.00
2015,06,15,15,46,27.10
2015,06,15,15,47,27.10
2015,06,15,15,48,27.10
2015,06,15,15,49,27.10
2015,06,15,15,50,27.10
2015,06,15,15,51,27.10
2015,06,15,15,52,27.00
2015,06,15,15,53,27.00
2015,06,15,15,54,27.00
2015,06,15,15,55,27.00
2015,06,15,15,56,27.10
2015,06,15,15,57,27.10
2015,06,15,15,58,27.10
2015,06,15,15,59,27.10
2015,06,15,16,00,27.20
2015,06,15,16,01,27.20
2015,06,15,16,02,27.30
2015,06,15,16,03,27.30
2015,06,15,16,04,27.40
2015,06,15,16,05,27.40
2015,06,15,16,06,27.50
2015,06,15,16,07,27.50
2015,06,15,16,08,27.50
2015,06,15,16,09,27.50
2015,06,15,16,10,27.50
2015,06,15,16,11,27.40
2015,06,15,16,12,27.30
2015,06,15,16,13,27.30
2015,06,15,16,14,27.20
2015,06,15,16,15,27.20
2015,06,15,16,16,27.20
2015,06,15,16,17,27.20
2015,06,15,16,18,27.20
2015,06,15,16,19,27.10
2015,06,15,16,20,27.10
2015,06,15,16,21,27.00
2015,06,15,16,22,27.00
2015,06,15,16,23,26.90
2015,06,15,16,24,26.90
2015,06,15,16,25,26.90
2015,06,15,16,26,26.80
2015,06,15,16,27,26.80
2015,06,15,16,28,26.80
2015,06,15,16,29,26.90
2015,06,15,16,30,27.00
2015,06,15,16,31,27.10
2015,06,15,16,32,27.10
2015,06,15,16,33,27.20
2015,06,15,16,34,27.30
2015,06,15,16,35,27.40
2015,06,15,16,36,27.50
2015,06,15,16,37,27.60
2015,06,15,16,38,27.80
2015,06,15,16,39,27.80
2015,06,15,16,40,27.80
2015,06,15,16,41,27.80
2015,06,15,16,42,27.80
2015,06,15,16,43,27.80
2015,06,15,16,44,27.70
2015,06,15,16,45,27.70
2015,06,15,16,46,27.70
2015,06,15,16,47,27.80
2015,06,15,16,48,27.80
2015,06,15,16,49,27.80
2015,06,15,16,50,27.90
2015,06,15,16,51,27.90
2015,06,15,16,52,27.90
2015,06,15,16,53,27.90
2015,06,15,16,54,27.90
2015,06,15,16,55,27.80
2015,06,15,16,56,27.80
2015,06,15,16,57,27.70
2015,06,15,16,58,27.60
2015,06,15,16,59,27.60
2015,06,15,17,00,27.60
2015,06,15,17,01,27.60
2015,06,15,17,02,27.60
2015,06,15,17,03,27.60
2015,06,15,17,04,27.60
2015,06,15,17,05,27.60
2015,06,15,17,06,27.60
2015,06,15,17,07,27.60
2015,06,15,17,08,27.50
2015,06,15,17,09,27.50
2015,06,15,17,10,27.50
2015,06,15,17,11,27.40
2015,06,15,17,12,27.40
2015,06,15,17,13,27.40
2015,06,15,17,14,27.40
2015,06,15,17,15,27.40
2015,06,15,17,16,27.40
2015,06,15,17,17,27.40
2015,06,15,17,18,27.50
2015,06,15,17,19,27.50